Regional Weather Roundup
Issued by NWS New Orleans/Baton Rouge, LA

Home | Current Version | Previous Version | Text Only | Print | Product List | Glossary On
Versions: 1 2 3 4 5 6 7 8 9 10 11 12 13 14 15 16 17 18 19 20 21 22 23 24 25 26 27 28 29 30 31 32 33 34 35 36 37 38 39 40 41 42 43 44 45 46 47 48 49 50
943
ASUS44 KLIX 261607
RWRLIX
NEW ORLEANS REGIONAL WEATHER ROUNDUP
NATIONAL WEATHER SERVICE NEW ORLEANS LA
1100 AM CDT THU MAR 26 2015

NOTE: "FAIR" INDICATES FEW OR NO CLOUDS BELOW 12,000 FEET WITH NO
      SIGNIFICANT WEATHER AND/OR OBSTRUCTIONS TO VISIBILITY.
      SKY/WX - SKY CONDITION AND SIGNIFICANT WEATHER.
      TMP - AIR TEMPERATURE.     DP    - DEWPOINT TEMPERATURE.
      RH  - RELATIVE HUMIDITY.   PRES  - PRESSURE.
      HI  - HEAT INDEX.          WCI   - WIND CHILL INDEX.

*  THESE STATIONS ARE NOT NWS OR FAA STATIONS AND ARE NOT UNDER
   NWS QUALITY CONTROL.

LAZ038-040-048-061>063-065>067-069-261700-
SOUTHEAST LOUISIANA

CITY           SKY/WX    TMP DP  RH WIND       PRES   REMARKS
N.O. AUDUBON   NOT AVBL
N.O. INTL ARPT CLOUDY    70  66  87 S12       29.91F
N.O. LAKEFRONT LGT RAIN  72  67  84 SW12      29.91F
SLIDELL        TSTM      69  67  93 S10G28    29.92R VSB 3/4
BATON ROUGE    MOSUNNY   71  66  84 CALM      29.90S
BOOTHVILLE     LGT RAIN  70  67  90 W8        29.95S
BELLE CHASSE   TSTM      70  67  90 SW7       29.92F FOG
BOGALUSA*        N/A     69  64  84 CALM      29.93F
GALLIANO*      RAIN      67  66  94 MISG      29.96R
NEW ROADS*       N/A     72  64  77 CALM      29.90S
GONZALES*      PTSUNNY   68  68 100 SE5       29.91S
HAMMOND*       CLOUDY    70  64  83 SE3       29.92F
HOUMA*         LGT RAIN  64  64 100 S6        29.96S FOG
PORT FOURCHON* SUNNY     68  66  94 NW6       30.00R FOG

$$

MSZ070-080>082-261700-
SOUTHERN MISSISSIPPI

CITY           SKY/WX    TMP DP  RH WIND       PRES   REMARKS
MCCOMB         MOSUNNY   71  64  78 CALM      29.90S
GULFPORT       CLOUDY    68  64  87 N6        29.92S
BILOXI         CLOUDY    68  66  94 E5        29.92S THUNDER
PASCAGOULA     CLOUDY    67  65  93 E5        29.94R
STENNIS ARPT*    N/A     68  64  88 SE5       29.91S

$$

COASTAL OBSERVATIONS
LAKE AND NEARSHORE STATIONS

STATION/POSITION TIME  TEMP    WIND        PRES    WAVE
                       AIR SEA DIR/SP/G            HT/PER
                 (UTC) (F)     (DEG/KT/KT) (MB)    (FT/S)
PASCAGOULA       1500   69      50/  4/  6 1013.1
WAVELAND YACHT   1500   69 71  120/  5/  8 1012.4
GRAND ISLE       1500   70 71  270/  9/ 12 1014.0
SOUTHWEST PASS   1500   64 51  230/  5/  6 1014.2
NEW CANAL        1500   70     200/  5/  6 1013.9
SHELL BEACH      1500   71 72  190/  9/ 12 1013.4

OFFSHORE STATIONS

STATION/POSITION TIME  TEMP    WIND        PRES    WAVE
                       AIR SEA DIR/SP/G            HT/PER
                 (UTC) (F)     (DEG/KT/KT) (MB)    (FT/S)
64 S DAUPHIN ISL 1550   67 71   10/  8/ 10 1013.7    3/ 6

$$




USA.gov is the U.S. government's official web portal to all federal, state and local government web resources and services.